Simultaneous Nadir Overpasses (SNOs) Predictions

Prediction of SNOs near equator between NOAA-19 and NPP Satellite Orbit:

Table of predicted SNOs near equator for the next 14.0 days since TLE Epoch: 1/1/2012
Index Date (NOAA-19) Time (NOAA-19) NOAA-19 Lat,Lon Date (NPP) Time (NPP) NPP Lat,Lon Distance(km) Time Diff (sec)
1 01/03/2012 15:28:28 -29.97, 145.72 01/03/2012 15:25:48 -29.77, 144.75 96.43 160
2 01/03/2012 16:19:40 29.98, -47.08 01/03/2012 16:16:37 29.78, -47.96 87.49 183
3 01/03/2012 17:10:34 -29.99, 120.19 01/03/2012 17:07:19 -29.85, 119.35 82.45 195
4 01/03/2012 18:01:45 29.94, -72.59 01/03/2012 17:58:07 29.79, -73.34 73.51 218
5 01/03/2012 18:52:39 -29.96, 94.68 01/03/2012 18:48:48 -29.80, 93.99 68.50 231
6 01/03/2012 19:43:51 29.97, -98.12 01/03/2012 19:39:38 29.86, -98.73 59.53 253
7 01/03/2012 20:34:45 -29.99, 69.15 01/03/2012 20:30:19 -29.87, 68.60 54.46 266
8 01/03/2012 21:25:57 29.99,-123.65 01/03/2012 21:21:08 29.88,-124.11 45.57 289
9 01/03/2012 22:16:50 -29.95, 43.63 01/03/2012 22:11:49 -29.89, 43.22 40.56 301
10 01/03/2012 23:08:02 29.96,-149.17 01/03/2012 23:02:38 29.89,-149.48 31.55 324
11 01/03/2012 23:58:56 -29.98, 18.10 01/03/2012 23:53:19 -29.90, 17.84 26.65 337
12 01/04/2012 00:50:08 29.98,-174.70 01/04/2012 00:44:09 29.96,-174.88 17.63 359
13 01/04/2012 01:41:01 -29.94, -7.41 01/04/2012 01:34:49 -29.91, -7.54 12.58 372
14 01/04/2012 02:32:13 29.95, 159.79 01/04/2012 02:25:38 29.92, 159.76 4.69 395
15 01/04/2012 03:22:18 -27.13, -32.16 01/04/2012 03:15:31 -27.13, -32.16 0.44 407
16 01/04/2012 04:04:45 -3.47, 142.31 01/04/2012 03:57:39 -3.47, 142.31 0.40 426
17 01/04/2012 04:55:26 4.26, -50.24 01/04/2012 04:48:06 4.26, -50.18 5.83 440
18 01/04/2012 05:46:55 -3.16, 116.72 01/04/2012 05:39:14 -3.11, 116.85 16.05 461
19 01/04/2012 06:38:06 2.18, -76.23 01/04/2012 06:30:11 2.12, -76.03 22.60 475
20 01/04/2012 07:29:36 -1.09, 90.73 01/04/2012 07:21:19 -1.03, 91.02 32.81 497
21 01/04/2012 08:20:47 0.11,-102.22 01/04/2012 08:12:16 0.05,-101.87 39.48 511
22 01/04/2012 09:12:17 0.98, 64.74 01/04/2012 09:03:25 1.10, 65.17 49.76 532
23 01/04/2012 10:03:28 -1.97,-128.21 01/04/2012 09:54:22 -2.08,-127.72 56.21 546
24 01/04/2012 11:02:40 29.96, 32.17 01/04/2012 10:53:09 30.10, 32.84 66.18 571
25 01/04/2012 11:53:34 -29.98,-160.56 01/04/2012 11:43:50 -30.11,-159.83 71.19 584
26 01/04/2012 12:37:36 4.93, 12.79 01/04/2012 12:27:36 5.30, 13.48 86.19 600




NCC Satellite Simultaneous Nadir Overpasses (SNOs) Prediction Service
